Weather History for KMWT - October, 2012

Change the Weather History Date:

Sunday, October 21, 2012

  Actual Average (KHOT) Record (KHOT)
Temperature  
Mean Temperature 72 °F -  
Max Temperature 80 °F 73 °F 91 °F (2003)
Min Temperature 66 °F 48 °F 30 °F (1989)
Cooling Degree Days 8    
Growing Degree Days 22 (Base 50)    
Moisture  
Dew Point 62 °F    
Average Humidity 70    
Maximum Humidity 84    
Minimum Humidity 42    
Precipitation  
Precipitation 0.00 in - - ()
Sea Level Pressure  
Sea Level Pressure 29.90 in    
Wind  
Wind Speed 3 mph (SSW)    
Max Wind Speed 10 mph    
Max Gust Speed 20 mph    
Visibility 10 miles    
Events      
Averages and records for this station are not official NWS values.
T = Trace of Precipitation, MM = Missing Value Source: NWS Daily Summary

Daily Weather History Graph

Daily Weather History Graph

Search for Another Location

Airport or City:

Trip Planner

Search our weather history database for the weather conditions in past years. The results will help you decide how hot, cold, wet, or windy it might be!

Date:

Astronomy

Oct. 21, 2012 Rise Set
Actual Time 7:25 AM CDT 6:31 PM CDT
Civil Twilight 6:59 AM CDT 6:57 PM CDT
Nautical Twilight 6:30 AM CDT 7:26 PM CDT
Astronomical Twilight 6:01 AM CDT 7:55 PM CDT
Moon 1:41 PM CDT (10/21) No Moon Set
Length of Visible Light 11h 57m
Length of Day
11h 06m
Waxing Crescent, 45% of the Moon is Illuminated
Oct 21
Waxing Crescent
Oct 21
First Quarter
Oct 29
Full
Nov 6
Last Quarter
Nov 13
New

Hourly Weather History & Observations

Time (CDT) Temp. Dew Point Humidity Pressure Visibility Wind Dir Wind Speed Gust Speed Precip Events Conditions
12:53 AM 70.0 °F 46.0 °F 42% 29.84 in 10.0 mi Variable 3.5 mph - N/A   Clear
1:53 AM 70.0 °F 51.1 °F 51% 29.83 in 10.0 mi Calm Calm - N/A   Clear
2:53 AM 69.1 °F 53.1 °F 57% 29.84 in 10.0 mi Calm Calm - N/A   Clear
3:53 AM 68.0 °F 55.0 °F 63% 29.85 in 10.0 mi Calm Calm - N/A   Scattered Clouds
4:00 AM 68.0 °F 55.4 °F 64% 29.87 in 10.0 mi Calm Calm - N/A   Mostly Cloudy
4:53 AM 68.0 °F 55.9 °F 65% 29.86 in 10.0 mi Variable 3.5 mph - N/A   Overcast
5:53 AM 68.0 °F 59.0 °F 73% 29.88 in 10.0 mi Variable 4.6 mph - N/A   Overcast
6:53 AM 66.9 °F 60.1 °F 79% 29.90 in 10.0 mi Calm Calm - N/A   Overcast
7:53 AM 66.9 °F 61.0 °F 81% 29.91 in 10.0 mi Variable 3.5 mph - N/A   Mostly Cloudy
8:53 AM 68.0 °F 63.0 °F 84% 29.92 in 10.0 mi Variable 3.5 mph - N/A   Overcast
9:06 AM 69.8 °F 62.6 °F 78% 29.95 in 10.0 mi Variable 3.5 mph - N/A   Overcast
9:53 AM 69.1 °F 64.0 °F 84% 29.94 in 10.0 mi Calm Calm - N/A   Overcast
10:53 AM 73.0 °F 64.9 °F 76% 29.93 in 10.0 mi Variable 3.5 mph - N/A   Mostly Cloudy
11:07 AM 73.4 °F 64.4 °F 73% 29.95 in 10.0 mi Variable 6.9 mph 19.6 mph N/A   Scattered Clouds
11:53 AM 73.9 °F 66.0 °F 76% 29.93 in 10.0 mi Variable 3.5 mph - N/A   Overcast
12:29 PM 75.2 °F 66.2 °F 73% 29.95 in 10.0 mi Variable 5.8 mph - N/A   Mostly Cloudy
12:41 PM 75.2 °F 66.2 °F 73% 29.94 in 10.0 mi South 8.1 mph - N/A   Mostly Cloudy
12:53 PM 75.0 °F 66.9 °F 76% 29.92 in 10.0 mi Variable 6.9 mph - N/A   Mostly Cloudy
1:53 PM 77.0 °F 66.9 °F 71% 29.90 in 10.0 mi WSW 10.4 mph - N/A   Mostly Cloudy
2:53 PM 75.9 °F 66.9 °F 74% 29.88 in 10.0 mi Variable 3.5 mph - N/A   Overcast
3:29 PM 77.0 °F 66.2 °F 69% 29.90 in 10.0 mi Variable 5.8 mph - N/A   Overcast
3:53 PM 79.0 °F 66.0 °F 64% 29.87 in 10.0 mi Variable 3.5 mph - N/A   Scattered Clouds
4:53 PM 79.0 °F 64.9 °F 62% 29.86 in 10.0 mi Variable 6.9 mph - N/A   Partly Cloudy
5:53 PM 78.1 °F 64.9 °F 64% 29.87 in 10.0 mi Calm Calm - N/A   Partly Cloudy
6:53 PM 77.0 °F 66.0 °F 69% 29.88 in 10.0 mi Calm Calm - N/A   Clear
7:53 PM 75.9 °F 66.0 °F 71% 29.89 in 10.0 mi Variable 3.5 mph - N/A   Clear
8:53 PM 75.9 °F 64.9 °F 69% 29.90 in 10.0 mi Variable 5.8 mph - N/A   Clear
9:53 PM 75.9 °F 64.9 °F 69% 29.91 in 10.0 mi Variable 5.8 mph - N/A   Overcast
10:53 PM 75.0 °F 64.0 °F 69% 29.92 in 10.0 mi Variable 4.6 mph - N/A   Mostly Cloudy
11:53 PM 75.0 °F 63.0 °F 66% 29.92 in 10.0 mi SSW 8.1 mph - N/A   Mostly Cloudy